Date,TemperatureHighF,TemperatureAvgF,TemperatureLowF,DewpointHighF,DewpointAvgF,DewpointLowF,HumidityHigh,HumidityAvg,HumidityLow,PressureMaxIn,PressureMinIn,WindSpeedMaxMPH,WindSpeedAvgMPH,GustSpeedMaxMPH,PrecipitationSumIn
2012-1-1,35,20,4,-100,-100,-100,0,0,100,0.00,40.00,0,-999,0,0.00
2012-1-2,42,23,13,-100,-100,-100,0,0,100,0.00,40.00,0,-999,0,0.00
2012-1-3,39,24,18,-100,-100,-100,0,0,100,0.00,40.00,0,-999,0,0.00
2012-1-4,42,25,11,-100,-100,-100,0,0,100,0.00,40.00,0,-999,0,0.00
2012-1-5,46,26,18,-100,-100,-100,0,0,100,0.00,40.00,0,-999,0,0.00
2012-1-6,35,22,13,-100,-100,-100,0,0,100,0.00,40.00,0,-999,0,0.00
2012-1-7,27,22,15,-100,-100,-100,0,0,100,0.00,40.00,0,-999,0,0.02
2012-1-8,23,9,1,-100,-100,-100,0,0,100,0.00,40.00,0,-999,0,0.01
2012-1-9,38,18,4,-100,-100,-100,0,0,100,0.00,40.00,0,-999,0,0.00
2012-1-10,40,20,14,-100,-100,-100,0,0,100,0.00,40.00,0,-999,0,0.00
2012-1-11,20,11,1,-100,-100,-100,0,0,100,0.00,40.00,0,-999,0,0.01
2012-1-12,21,8,-10,-100,-100,-100,0,0,100,0.00,40.00,0,-999,0,0.01
2012-1-13,22,10,-1,-100,-100,-100,0,0,100,0.00,40.00,0,-999,0,0.00
2012-1-14,37,19,5,-100,-100,-100,0,0,100,0.00,40.00,0,-999,0,0.00
2012-1-15,39,24,13,-100,-100,-100,0,0,100,0.00,40.00,0,-999,0,0.00
2012-1-16,27,20,5,-100,-100,-100,0,0,100,0.00,40.00,0,-999,0,0.01
2012-1-17,16,4,-9,-100,-100,-100,0,0,100,0.00,40.00,0,-999,0,0.01
2012-1-18,27,21,12,-100,-100,-100,0,0,100,0.00,40.00,0,-999,0,0.00
2012-1-19,38,31,24,-100,-100,-100,0,0,100,0.00,40.00,0,-999,0,0.01
2012-1-20,30,25,16,-100,-100,-100,0,0,100,0.00,40.00,0,-999,0,0.01
2012-1-21,36,24,13,-100,-100,-100,0,0,100,0.00,40.00,0,-999,0,0.02
2012-1-22,24,16,1,-100,-100,-100,0,0,100,0.00,40.00,0,-999,0,0.02
2012-1-23,33,16,2,-100,-100,-100,0,0,100,0.00,40.00,0,-999,0,0.00
2012-1-24,26,19,12,-100,-100,-100,0,0,100,0.00,40.00,0,-999,0,0.00
2012-1-25,35,19,3,-100,-100,-100,0,0,100,0.00,40.00,0,-999,0,0.00
2012-1-26,34,23,12,-100,-100,-100,0,0,100,0.00,40.00,0,-999,0,0.01
2012-1-27,22,15,-1,-100,-100,-100,0,0,100,0.00,40.00,0,-999,0,0.02
2012-1-28,25,9,-5,-100,-100,-100,0,0,100,0.00,40.00,0,-999,0,0.00
2012-1-29,34,19,9,-100,-100,-100,0,0,100,0.00,40.00,0,-999,0,0.00
2012-1-30,37,22,12,-100,-100,-100,0,0,100,0.00,40.00,0,-999,0,0.00
2012-1-31,32,20,7,-100,-100,-100,0,0,100,0.00,40.00,0,-999,0,0.00
2012-2-1,37,20,6,-100,-100,-100,0,0,100,0.00,40.00,0,-999,0,0.00
2012-2-2,29,20,14,-100,-100,-100,0,0,100,0.00,40.00,0,-999,0,0.01
2012-2-3,22,14,3,-100,-100,-100,0,0,100,0.00,40.00,0,-999,0,0.00
2012-2-4,27,9,-3,-100,-100,-100,0,0,100,0.00,40.00,0,-999,0,0.01
2012-2-5,26,12,1,-100,-100,-100,0,0,100,0.00,40.00,0,-999,0,0.00
2012-2-6,23,11,2,-100,-100,-100,0,0,100,0.00,40.00,0,-999,0,0.00
2012-2-7,28,10,-1,-100,-100,-100,0,0,100,0.00,40.00,0,-999,0,0.01
2012-2-8,32,17,3,-100,-100,-100,0,0,100,0.00,40.00,0,-999,0,0.01
2012-2-9,25,19,13,-100,-100,-100,0,0,100,0.00,40.00,0,-999,0,0.01
2012-2-10,29,19,9,-100,-100,-100,0,0,100,0.00,40.00,0,-999,0,0.01
2012-2-11,33,23,14,-100,-100,-100,0,0,100,0.00,40.00,0,-999,0,0.01
2012-2-12,35,23,14,-100,-100,-100,0,0,100,0.00,40.00,0,-999,0,0.01
2012-2-13,25,20,11,-100,-100,-100,0,0,100,0.00,40.00,0,-999,0,0.01
2012-2-14,28,17,8,-100,-100,-100,0,0,100,0.00,40.00,0,-999,0,0.00
2012-2-15,28,14,2,-100,-100,-100,0,0,100,0.00,40.00,0,-999,0,0.00
2012-2-16,29,16,6,-100,-100,-100,0,0,100,0.00,40.00,0,-999,0,0.00
2012-2-17,32,14,1,-100,-100,-100,0,0,100,0.00,40.00,0,-999,0,0.00
2012-2-18,32,16,1,-100,-100,-100,0,0,100,0.00,40.00,0,-999,0,0.00
2012-2-19,32,20,8,-100,-100,-100,0,0,100,0.00,40.00,0,-999,0,0.00
2012-2-20,17,8,1,-100,-100,-100,0,0,100,0.00,40.00,0,-999,0,0.01
2012-2-21,23,17,8,-100,-100,-100,0,0,100,0.00,40.00,0,-999,0,0.01
2012-2-22,33,27,20,-100,-100,-100,0,0,100,0.00,40.00,0,-999,0,0.01
2012-2-23,29,14,5,-100,-100,-100,0,0,100,0.00,40.00,0,-999,0,0.02
2012-2-24,25,12,2,-100,-100,-100,0,0,100,0.00,40.00,0,-999,0,0.01
2012-2-25,38,23,9,-100,-100,-100,0,0,100,0.00,40.00,0,-999,0,0.00
2012-2-26,24,11,1,-100,-100,-100,0,0,100,0.00,40.00,0,-999,0,0.00
2012-2-27,38,24,3,-100,-100,-100,0,0,100,0.00,40.00,0,-999,0,0.00
2012-2-28,29,22,14,-100,-100,-100,0,0,100,0.00,40.00,0,-999,0,0.03
2012-2-29,29,18,5,-100,-100,-100,0,0,100,0.00,40.00,0,-999,0,0.02
2012-3-1,22,16,8,-100,-100,-100,0,0,100,0.00,40.00,0,-999,0,0.01
2012-3-2,17,4,-6,-100,-100,-100,0,0,100,0.00,40.00,0,-999,0,0.01
2012-3-3,22,12,-1,-100,-100,-100,0,0,100,0.00,40.00,0,-999,0,0.01
2012-3-4,38,23,13,-100,-100,-100,0,0,100,0.00,40.00,0,-999,0,0.01
2012-3-5,43,27,11,-100,-100,-100,0,0,100,0.00,40.00,0,-999,0,0.00
2012-3-6,47,33,18,-100,-100,-100,0,0,100,0.00,40.00,0,-999,0,0.00
2012-3-7,39,29,20,-100,-100,-100,0,0,100,0.00,40.00,0,-999,0,0.00
2012-3-8,38,23,11,-100,-100,-100,0,0,100,0.00,40.00,0,-999,0,0.00
2012-3-9,45,26,9,-100,-100,-100,0,0,100,0.00,40.00,0,-999,0,0.00
2012-3-10,48,28,14,-100,-100,-100,0,0,100,0.00,40.00,0,-999,0,0.00
2012-3-11,42,30,19,-100,-100,-100,0,0,100,0.00,40.00,0,-999,0,0.00
2012-3-12,46,32,20,-100,-100,-100,0,0,100,0.00,40.00,0,-999,0,0.00
2012-3-13,47,33,21,-100,-100,-100,0,0,100,0.00,40.00,0,-999,0,0.00
2012-3-14,49,34,21,-100,-100,-100,0,0,100,0.00,40.00,0,-999,0,0.00
2012-3-15,50,34,21,-100,-100,-100,0,0,100,0.00,40.00,0,-999,0,0.00
2012-3-16,51,36,25,-100,-100,-100,0,0,100,0.00,40.00,0,-999,0,0.00
2012-3-17,51,38,27,-100,-100,-100,0,0,100,0.00,40.00,0,-999,0,0.00
2012-3-18,42,34,20,-100,-100,-100,0,0,100,0.00,40.00,0,-999,0,0.00
2012-3-19,25,16,8,-100,-100,-100,0,0,100,0.00,40.00,0,-999,0,0.00
2012-3-20,29,18,5,-100,-100,-100,0,0,100,0.00,40.00,0,-999,0,0.00
2012-3-21,41,26,10,-100,-100,-100,0,0,100,0.00,40.00,0,-999,0,0.00
2012-3-22,50,31,17,-100,-100,-100,0,0,100,0.00,40.00,0,-999,0,0.00
2012-3-23,57,38,23,-100,-100,-100,0,0,100,0.00,40.00,0,-999,0,0.00
2012-3-24,55,39,26,-100,-100,-100,0,0,100,0.00,40.00,0,-999,0,0.00
2012-3-25,55,40,29,-100,-100,-100,0,0,100,0.00,40.00,0,-999,0,0.00
2012-3-26,50,41,30,-100,-100,-100,0,0,100,0.00,40.00,0,-999,0,0.00
2012-3-27,48,37,25,-100,-100,-100,0,0,100,0.00,40.00,0,-999,0,0.00
2012-3-28,54,37,26,-100,-100,-100,0,0,100,0.00,40.00,0,-999,0,0.00
2012-3-29,48,37,29,-100,-100,-100,0,0,100,0.00,40.00,0,-999,0,0.00
2012-3-30,51,39,29,-100,-100,-100,0,0,100,0.00,40.00,0,-999,0,0.00
2012-3-31,59,42,30,-100,-100,-100,0,0,100,0.00,40.00,0,-999,0,0.00
2012-4-1,58,43,33,-100,-100,-100,0,0,100,0.00,40.00,0,-999,0,0.00
2012-4-2,43,30,25,-100,-100,-100,0,0,100,0.00,40.00,0,-999,0,0.00
2012-4-3,40,30,24,-100,-100,-100,0,0,100,0.00,40.00,0,-999,0,0.00
2012-4-4,50,36,24,-100,-100,-100,0,0,100,0.00,40.00,0,-999,0,0.00
2012-4-5,52,37,25,-100,-100,-100,0,0,100,0.00,40.00,0,-999,0,0.00
2012-4-6,47,38,23,-100,-100,-100,0,0,100,0.00,40.00,0,-999,0,0.00
2012-4-7,46,30,14,-100,-100,-100,0,0,100,0.00,40.00,0,-999,0,0.00
2012-4-8,51,35,19,-100,-100,-100,0,0,100,0.00,40.00,0,-999,0,0.00
2012-4-9,53,37,25,-100,-100,-100,0,0,100,0.00,40.00,0,-999,0,0.00
2012-4-10,57,42,27,-100,-100,-100,0,0,100,0.00,40.00,0,-999,0,0.00
2012-4-11,57,42,30,-100,-100,-100,0,0,100,0.00,40.00,0,-999,0,0.00
2012-4-12,42,34,27,-100,-100,-100,0,0,100,0.00,40.00,0,-999,0,0.00
2012-4-13,40,31,23,-100,-100,-100,0,0,100,0.00,40.00,0,-999,0,0.00
2012-4-14,38,29,24,-100,-100,-100,0,0,100,0.00,40.00,0,-999,0,0.01
2012-4-15,32,26,21,-100,-100,-100,0,0,100,0.00,40.00,0,-999,0,0.03
2012-4-16,34,26,20,-100,-100,-100,0,0,100,0.00,40.00,0,-999,0,0.01
2012-4-17,45,29,15,-100,-100,-100,0,0,100,0.00,40.00,0,-999,0,0.00
2012-4-18,49,36,24,-100,-100,-100,0,0,100,0.00,40.00,0,-999,0,0.00
2012-4-19,41,32,29,-100,-100,-100,0,0,100,0.00,40.00,0,-999,0,0.02
2012-4-20,42,34,28,-100,-100,-100,0,0,100,0.00,40.00,0,-999,0,0.01
2012-4-21,54,40,30,-100,-100,-100,0,0,100,0.00,40.00,0,-999,0,0.00
2012-4-22,57,41,29,-100,-100,-100,0,0,100,0.00,40.00,0,-999,0,0.00
2012-4-23,60,43,30,-100,-100,-100,0,0,100,0.00,40.00,0,-999,0,0.00
2012-4-24,58,44,32,-100,-100,-100,0,0,100,0.00,40.00,0,-999,0,0.00
2012-4-25,57,45,34,-100,-100,-100,0,0,100,0.00,40.00,0,-999,0,0.00
2012-4-26,56,44,34,-100,-100,-100,0,0,100,0.00,40.00,0,-999,0,0.00
2012-4-27,40,35,31,-100,-100,-100,0,0,100,0.00,40.00,0,-999,0,0.01
2012-4-28,43,30,23,-100,-100,-100,0,0,100,0.00,40.00,0,-999,0,0.00
2012-4-29,48,34,20,-100,-100,-100,0,0,100,0.00,40.00,0,-999,0,0.00
2012-4-30,51,38,24,-100,-100,-100,0,0,100,0.00,40.00,0,-999,0,0.00
2012-5-1,51,42,33,-100,-100,-100,0,0,100,0.00,40.00,0,-999,0,0.00
2012-5-2,53,44,32,-100,-100,-100,0,0,100,0.00,40.00,0,-999,0,0.00
2012-5-3,59,45,30,-100,-100,-100,0,0,100,0.00,40.00,0,-999,0,0.00
2012-5-4,62,48,35,-100,-100,-100,0,0,100,0.00,40.00,0,-999,0,0.00
2012-5-5,58,44,34,-100,-100,-100,0,0,100,0.00,40.00,0,-999,0,0.00
2012-5-6,50,38,28,-100,-100,-100,0,0,100,0.00,40.00,0,-999,0,0.01
2012-5-7,42,34,29,-100,-100,-100,0,0,100,0.00,40.00,0,-999,0,0.01
2012-5-8,50,36,26,-100,-100,-100,0,0,100,0.00,40.00,0,-999,0,0.01
2012-5-9,55,41,26,-100,-100,-100,0,0,100,0.00,40.00,0,-999,0,0.00
2012-5-10,59,44,30,-100,-100,-100,0,0,100,0.00,40.00,0,-999,0,0.00
2012-5-11,47,38,30,-100,-100,-100,0,0,100,0.00,40.00,0,-999,0,0.02
2012-5-12,52,36,26,-100,-100,-100,0,0,100,0.00,40.00,0,-999,0,0.01
2012-5-13,42,35,28,-100,-100,-100,0,0,100,0.00,40.00,0,-999,0,0.00
2012-5-14,57,42,24,-100,-100,-100,0,0,100,0.00,40.00,0,-999,0,0.00
2012-5-15,60,45,29,-100,-100,-100,0,0,100,0.00,40.00,0,-999,0,0.00
2012-5-16,53,41,34,-100,-100,-100,0,0,100,0.00,40.00,0,-999,0,0.01
2012-5-17,55,42,30,-100,-100,-100,0,0,100,0.00,40.00,0,-999,0,0.00
2012-5-18,58,46,35,-100,-100,-100,0,0,100,0.00,40.00,0,-999,0,0.00
2012-5-19,43,35,31,-100,-100,-100,0,0,100,0.00,40.00,0,-999,0,0.01
2012-5-20,53,40,28,-100,-100,-100,0,0,100,0.00,40.00,0,-999,0,0.01
2012-5-21,63,46,31,-100,-100,-100,0,0,100,0.00,40.00,0,-999,0,0.00
2012-5-22,64,51,36,-100,-100,-100,0,0,100,0.00,40.00,0,-999,0,0.00
2012-5-23,55,45,32,-100,-100,-100,0,0,100,0.00,40.00,0,-999,0,0.01
2012-5-24,46,36,28,-100,-100,-100,0,0,100,0.00,40.00,0,-999,0,0.01
2012-5-25,62,51,35,-100,-100,-100,0,0,100,0.00,40.00,0,-999,0,0.00
2012-5-26,63,52,42,-100,-100,-100,0,0,100,0.00,40.00,0,-999,0,0.00
2012-5-27,46,37,30,-100,-100,-100,0,0,100,0.00,40.00,0,-999,0,0.01
2012-5-28,52,39,27,-100,-100,-100,0,0,100,0.00,40.00,0,-999,0,0.00
2012-5-29,58,43,28,-100,-100,-100,0,0,100,0.00,40.00,0,-999,0,0.00
2012-5-30,60,46,31,-100,-100,-100,0,0,100,0.00,40.00,0,-999,0,0.00
2012-5-31,60,46,33,-100,-100,-100,0,0,100,0.00,40.00,0,-999,0,0.00
2012-6-1,62,50,38,-100,-100,-100,0,0,100,0.00,40.00,0,-999,0,0.00
2012-6-2,60,44,36,-100,-100,-100,0,0,100,0.00,40.00,0,-999,0,0.01
2012-6-3,65,50,35,-100,-100,-100,0,0,100,0.00,40.00,0,-999,0,0.00
2012-6-4,66,52,37,-100,-100,-100,0,0,100,0.00,40.00,0,-999,0,0.00
2012-6-5,61,51,37,-100,-100,-100,0,0,100,0.00,40.00,0,-999,0,0.00
2012-6-6,64,51,36,-100,-100,-100,0,0,100,0.00,40.00,0,-999,0,0.00
2012-6-7,67,52,35,-100,-100,-100,0,0,100,0.00,40.00,0,-999,0,0.00
2012-6-8,71,54,36,-100,-100,-100,0,0,100,0.00,40.00,0,-999,0,0.00
2012-6-9,69,56,42,-100,-100,-100,0,0,100,0.00,40.00,0,-999,0,0.00
2012-6-10,57,47,33,-100,-100,-100,0,0,100,0.00,40.00,0,-999,0,0.00
2012-6-11,61,44,26,-100,-100,-100,0,0,100,0.00,40.00,0,-999,0,0.00
2012-6-12,63,48,32,-100,-100,-100,0,0,100,0.00,40.00,0,-999,0,0.00
2012-6-13,70,52,35,-100,-100,-100,0,0,100,0.00,40.00,0,-999,0,0.00
2012-6-14,70,53,36,-100,-100,-100,0,0,100,0.00,40.00,0,-999,0,0.00
2012-6-15,69,55,40,-100,-100,-100,0,0,100,0.00,40.00,0,-999,0,0.00
2012-6-16,65,51,39,-100,-100,-100,0,0,100,0.00,40.00,0,-999,0,0.00
2012-6-17,43,40,38,-100,-100,-100,0,0,100,0.00,40.00,0,-999,0,0.00
2012-6-18,72,59,43,-100,-100,-100,0,0,100,0.00,40.00,0,-999,0,0.00
2012-6-19,72,59,42,-100,-100,-100,0,0,100,0.00,40.00,0,-999,0,0.00
2012-6-20,65,55,37,-100,-100,-100,0,0,100,0.00,40.00,0,-999,0,0.00
2012-6-21,73,55,36,-100,-100,-100,0,0,100,0.00,40.00,0,-999,0,0.00
2012-6-22,75,60,42,-100,-100,-100,0,0,100,0.00,40.00,0,-999,0,0.00
2012-6-23,76,62,46,-100,-100,-100,0,0,100,0.00,40.00,0,-999,0,0.00
2012-6-24,73,58,45,-100,-100,-100,0,0,100,0.00,40.00,0,-999,0,0.01
2012-6-25,75,60,45,-100,-100,-100,0,0,100,0.00,40.00,0,-999,0,0.78
2012-6-26,70,57,45,-100,-100,-100,0,0,100,0.00,40.00,0,-999,0,0.01
2012-6-27,67,56,47,-100,-100,-100,0,0,100,0.00,40.00,0,-999,0,0.00
2012-6-28,67,52,44,-100,-100,-100,0,0,100,0.00,40.00,0,-999,0,0.01
2012-6-29,70,56,40,-100,-100,-100,0,0,100,0.00,40.00,0,-999,0,0.01
2012-6-30,71,59,43,-100,-100,-100,0,0,100,0.00,40.00,0,-999,0,0.01
2012-7-1,73,60,45,-100,-100,-100,0,0,100,0.00,40.00,0,-999,0,0.00
2012-7-2,72,56,44,-100,-100,-100,0,0,100,0.00,40.00,0,-999,0,0.01
2012-7-3,69,54,42,-100,-100,-100,0,0,100,0.00,40.00,0,-999,0,0.00
2012-7-4,67,53,43,-100,-100,-100,0,0,100,0.00,40.00,0,-999,0,0.00
2012-7-5,73,56,45,-100,-100,-100,0,0,100,0.00,40.00,0,-999,0,0.00
2012-7-6,61,51,41,-100,-100,-100,0,0,100,0.00,40.00,0,-999,0,0.01
2012-7-7,58,50,47,-100,-100,-100,0,0,100,0.00,40.00,0,-999,0,0.01
2012-7-8,64,51,42,-100,-100,-100,0,0,100,0.00,40.00,0,-999,0,0.00
2012-7-9,68,52,40,-100,-100,-100,0,0,100,0.00,40.00,0,-999,0,0.00
2012-7-10,71,54,39,-100,-100,-100,0,0,100,0.00,40.00,0,-999,0,0.00
2012-7-11,69,55,42,-100,-100,-100,0,0,100,0.00,40.00,0,-999,0,0.01
2012-7-12,69,54,42,-100,-100,-100,0,0,100,0.00,40.00,0,-999,0,0.00
2012-7-13,71,55,41,-100,-100,-100,0,0,100,0.00,40.00,0,-999,0,0.00
2012-7-14,63,54,48,-100,-100,-100,0,0,100,0.00,40.00,0,-999,0,0.01
2012-7-15,65,51,42,-100,-100,-100,0,0,100,0.00,40.00,0,-999,0,0.01
2012-7-16,63,48,40,-100,-100,-100,0,0,100,0.00,40.00,0,-999,0,0.01
2012-7-17,64,58,48,-100,-100,-100,0,0,100,0.00,40.00,0,-999,0,0.02
2012-7-18,65,52,41,-100,-100,-100,0,0,100,0.00,40.00,0,-999,0,0.00
2012-7-19,70,52,42,-100,-100,-100,0,0,100,0.00,40.00,0,-999,0,0.00
2012-7-20,72,55,44,-100,-100,-100,0,0,100,0.00,40.00,0,-999,0,0.00
2012-7-21,68,52,42,-100,-100,-100,0,0,100,0.00,40.00,0,-999,0,0.01
2012-7-22,67,52,41,-100,-100,-100,0,0,100,0.00,40.00,0,-999,0,0.01
2012-7-23,64,53,42,-100,-100,-100,0,0,100,0.00,40.00,0,-999,0,0.00
2012-7-24,68,52,41,-100,-100,-100,0,0,100,0.00,40.00,0,-999,0,0.00
2012-7-25,63,52,42,-100,-100,-100,0,0,100,0.00,40.00,0,-999,0,0.00
2012-7-26,67,54,42,-100,-100,-100,0,0,100,0.00,40.00,0,-999,0,0.00
2012-7-27,67,53,42,-100,-100,-100,0,0,100,0.00,40.00,0,-999,0,0.02
2012-7-28,66,51,41,-100,-100,-100,0,0,100,0.00,40.00,0,-999,0,0.01
2012-7-29,64,52,45,-100,-100,-100,0,0,100,0.00,40.00,0,-999,0,0.02
2012-7-30,62,52,44,-100,-100,-100,0,0,100,0.00,40.00,0,-999,0,0.01
2012-7-31,67,56,43,-100,-100,-100,0,0,100,0.00,40.00,0,-999,0,0.00
2012-8-1,63,53,42,-100,-100,-100,0,0,100,0.00,40.00,0,-999,0,0.01
2012-8-2,60,50,42,-100,-100,-100,0,0,100,0.00,40.00,0,-999,0,0.01
2012-8-3,64,52,38,-100,-100,-100,0,0,100,0.00,40.00,0,-999,0,0.00
2012-8-4,67,53,40,-100,-100,-100,0,0,100,0.00,40.00,0,-999,0,0.00
2012-8-5,70,52,40,-100,-100,-100,0,0,100,0.00,40.00,0,-999,0,0.01
2012-8-6,68,51,44,-100,-100,-100,0,0,100,0.00,40.00,0,-999,0,0.02
2012-8-7,67,52,42,-100,-100,-100,0,0,100,0.00,40.00,0,-999,0,0.01
2012-8-8,72,53,40,-100,-100,-100,0,0,100,0.00,40.00,0,-999,0,0.00
2012-8-9,71,62,48,-100,-100,-100,0,0,100,0.00,40.00,0,-999,0,0.01
2012-8-10,69,54,44,-100,-100,-100,0,0,100,0.00,40.00,0,-999,0,0.00
2012-8-11,63,50,42,-100,-100,-100,0,0,100,0.00,40.00,0,-999,0,0.01
2012-8-12,69,55,38,-100,-100,-100,0,0,100,0.00,40.00,0,-999,0,0.00
2012-8-13,49,44,39,-100,-100,-100,0,0,100,0.00,40.00,0,-999,0,0.04
2012-8-14,65,48,38,-100,-100,-100,0,0,100,0.00,40.00,0,-999,0,0.02
2012-8-15,64,49,39,-100,-100,-100,0,0,100,0.00,40.00,0,-999,0,0.00
2012-8-16,68,52,40,-100,-100,-100,0,0,100,0.00,40.00,0,-999,0,0.00
2012-8-17,65,52,41,-100,-100,-100,0,0,100,0.00,40.00,0,-999,0,0.00
2012-8-18,66,52,39,-100,-100,-100,0,0,100,0.00,40.00,0,-999,0,0.00
2012-8-19,67,52,36,-100,-100,-100,0,0,100,0.00,40.00,0,-999,0,0.00
2012-8-20,55,47,41,-100,-100,-100,0,0,100,0.00,40.00,0,-999,0,0.01
2012-8-21,68,51,38,-100,-100,-100,0,0,100,0.00,40.00,0,-999,0,0.00
2012-8-22,60,49,44,-100,-100,-100,0,0,100,0.00,40.00,0,-999,0,0.02
2012-8-23,55,49,45,-100,-100,-100,0,0,100,0.00,40.00,0,-999,0,0.02
2012-8-24,58,48,40,-100,-100,-100,0,0,100,0.00,40.00,0,-999,0,0.02
2012-8-25,64,49,37,-100,-100,-100,0,0,100,0.00,40.00,0,-999,0,0.00
2012-8-26,67,53,37,-100,-100,-100,0,0,100,0.00,40.00,0,-999,0,0.00
2012-8-27,66,52,44,-100,-100,-100,0,0,100,0.00,40.00,0,-999,0,0.01
2012-8-28,68,52,42,-100,-100,-100,0,0,100,0.00,40.00,0,-999,0,0.01
2012-8-29,67,52,41,-100,-100,-100,0,0,100,0.00,40.00,0,-999,0,0.01
2012-8-30,64,50,43,-100,-100,-100,0,0,100,0.00,40.00,0,-999,0,0.02
2012-8-31,61,48,38,-100,-100,-100,0,0,100,0.00,40.00,0,-999,0,0.02
2012-9-1,61,49,39,-100,-100,-100,0,0,100,0.00,40.00,0,-999,0,0.01
2012-9-2,63,49,40,-100,-100,-100,0,0,100,0.00,40.00,0,-999,0,0.00
2012-9-3,60,48,40,-100,-100,-100,0,0,100,0.00,40.00,0,-999,0,0.00
2012-9-4,62,48,36,-100,-100,-100,0,0,100,0.00,40.00,0,-999,0,0.00
2012-9-5,63,47,35,-100,-100,-100,0,0,100,0.00,40.00,0,-999,0,0.00
2012-9-6,64,48,35,-100,-100,-100,0,0,100,0.00,40.00,0,-999,0,0.01
2012-9-7,57,46,38,-100,-100,-100,0,0,100,0.00,40.00,0,-999,0,0.01
2012-9-8,64,46,31,-100,-100,-100,0,0,100,0.00,40.00,0,-999,0,0.00
2012-9-9,68,50,35,-100,-100,-100,0,0,100,0.00,40.00,0,-999,0,0.00
2012-9-10,64,49,38,-100,-100,-100,0,0,100,0.00,40.00,0,-999,0,0.00
2012-9-11,60,49,43,-100,-100,-100,0,0,100,0.00,40.00,0,-999,0,0.01
2012-9-12,50,43,36,-100,-100,-100,0,0,100,0.00,40.00,0,-999,0,0.02
2012-9-13,57,42,31,-100,-100,-100,0,0,100,0.00,40.00,0,-999,0,0.01
2012-9-14,61,44,30,-100,-100,-100,0,0,100,0.00,40.00,0,-999,0,0.00
2012-9-15,62,45,32,-100,-100,-100,0,0,100,0.00,40.00,0,-999,0,0.00
2012-9-16,60,45,33,-100,-100,-100,0,0,100,0.00,40.00,0,-999,0,0.00
2012-9-17,46,39,34,-100,-100,-100,0,0,100,0.00,40.00,0,-999,0,0.01
2012-9-18,57,43,30,-100,-100,-100,0,0,100,0.00,40.00,0,-999,0,0.01
2012-9-19,60,44,32,-100,-100,-100,0,0,100,0.00,40.00,0,-999,0,0.00
2012-9-20,61,45,31,-100,-100,-100,0,0,100,0.00,40.00,0,-999,0,0.00
2012-9-21,61,43,33,-100,-100,-100,0,0,100,0.00,40.00,0,-999,0,0.00
2012-9-22,62,45,33,-100,-100,-100,0,0,100,0.00,40.00,0,-999,0,0.00
2012-9-23,58,47,35,-100,-100,-100,0,0,100,0.00,40.00,0,-999,0,0.00
2012-9-24,53,43,37,-100,-100,-100,0,0,100,0.00,40.00,0,-999,0,0.01
2012-9-25,47,38,32,-100,-100,-100,0,0,100,0.00,40.00,0,-999,0,0.00
2012-9-26,50,39,31,-100,-100,-100,0,0,100,0.00,40.00,0,-999,0,0.00
2012-9-27,48,38,32,-100,-100,-100,0,0,100,0.00,40.00,0,-999,0,0.00
2012-9-28,51,38,30,-100,-100,-100,0,0,100,0.00,40.00,0,-999,0,0.00
2012-9-29,57,41,31,-100,-100,-100,0,0,100,0.00,40.00,0,-999,0,0.00
2012-9-30,51,42,35,-100,-100,-100,0,0,100,0.00,40.00,0,-999,0,0.01
2012-10-1,55,42,32,-100,-100,-100,0,0,100,0.00,40.00,0,-999,0,0.00
2012-10-2,59,42,30,-100,-100,-100,0,0,100,0.00,40.00,0,-999,0,0.00
2012-10-3,58,44,33,-100,-100,-100,0,0,100,0.00,40.00,0,-999,0,0.00
2012-10-4,55,46,35,-100,-100,-100,0,0,100,0.00,40.00,0,-999,0,0.00
2012-10-5,48,39,35,-100,-100,-100,0,0,100,0.00,40.00,0,-999,0,0.01
2012-10-6,38,32,24,-100,-100,-100,0,0,100,0.00,40.00,0,-999,0,0.00
2012-10-7,41,28,17,-100,-100,-100,0,0,100,0.00,40.00,0,-999,0,0.00
2012-10-8,51,33,21,-100,-100,-100,0,0,100,0.00,40.00,0,-999,0,0.00
2012-10-9,51,40,29,-100,-100,-100,0,0,100,0.00,40.00,0,-999,0,0.00
2012-10-10,54,38,28,-100,-100,-100,0,0,100,0.00,40.00,0,-999,0,0.00
2012-10-11,58,42,31,-100,-100,-100,0,0,100,0.00,40.00,0,-999,0,0.00
2012-10-12,53,38,31,-100,-100,-100,0,0,100,0.00,40.00,0,-999,0,0.01
2012-10-13,35,31,26,-100,-100,-100,0,0,100,0.00,40.00,0,-999,0,0.01
2012-10-14,43,34,29,-100,-100,-100,0,0,100,0.00,40.00,0,-999,0,0.01
2012-10-15,51,35,26,-100,-100,-100,0,0,100,0.00,40.00,0,-999,0,0.00
2012-10-16,53,39,29,-100,-100,-100,0,0,100,0.00,40.00,0,-999,0,0.01
2012-10-17,35,30,21,-100,-100,-100,0,0,100,0.00,40.00,0,-999,0,0.01
2012-10-18,44,31,22,-100,-100,-100,0,0,100,0.00,40.00,0,-999,0,0.00
2012-10-19,52,36,24,-100,-100,-100,0,0,100,0.00,40.00,0,-999,0,0.00
2012-10-20,56,39,28,-100,-100,-100,0,0,100,0.00,40.00,0,-999,0,0.00
2012-10-21,55,40,30,-100,-100,-100,0,0,100,0.00,40.00,0,-999,0,0.00
2012-10-22,53,39,30,-100,-100,-100,0,0,100,0.00,40.00,0,-999,0,0.00
2012-10-23,50,43,37,-100,-100,-100,0,0,100,0.00,40.00,0,-999,0,0.00
2012-10-24,43,36,21,-100,-100,-100,0,0,100,0.00,40.00,0,-999,0,0.01
2012-10-25,26,20,16,-100,-100,-100,0,0,100,0.00,40.00,0,-999,0,0.01
2012-10-26,29,16,5,-100,-100,-100,0,0,100,0.00,40.00,0,-999,0,0.01
2012-10-27,31,23,16,-100,-100,-100,0,0,100,0.00,40.00,0,-999,0,0.00
2012-10-28,43,32,24,-100,-100,-100,0,0,100,0.00,40.00,0,-999,0,0.00
2012-10-29,47,35,28,-100,-100,-100,0,0,100,0.00,40.00,0,-999,0,0.00
2012-10-30,49,33,26,-100,-100,-100,0,0,100,0.00,40.00,0,-999,0,0.00
2012-10-31,51,33,25,-100,-100,-100,0,0,100,0.00,40.00,0,-999,0,0.00
2012-11-1,50,36,28,-100,-100,-100,0,0,100,0.00,40.00,0,-999,0,0.00
2012-11-2,45,33,26,-100,-100,-100,0,0,100,0.00,40.00,0,-999,0,0.00
2012-11-3,45,31,21,-100,-100,-100,0,0,100,0.00,40.00,0,-999,0,0.00
2012-11-4,42,32,23,-100,-100,-100,0,0,100,0.00,40.00,0,-999,0,0.00
2012-11-5,44,35,29,-100,-100,-100,0,0,100,0.00,40.00,0,-999,0,0.00
2012-11-6,49,33,25,-100,-100,-100,0,0,100,0.00,40.00,0,-999,0,0.00
2012-11-7,52,35,25,-100,-100,-100,0,0,100,0.00,40.00,0,-999,0,0.00
2012-11-8,52,36,26,-100,-100,-100,0,0,100,0.00,40.00,0,-999,0,0.00
2012-11-9,46,38,32,-100,-100,-100,0,0,100,0.00,40.00,0,-999,0,0.00
2012-11-10,33,23,9,-100,-100,-100,0,0,100,0.00,40.00,0,-999,0,0.01
2012-11-11,11,8,6,-100,-100,-100,0,0,100,0.00,40.00,0,-999,0,0.01
2012-11-12,31,11,-3,-100,-100,-100,0,0,100,0.00,40.00,0,-999,0,0.01
2012-11-13,31,20,12,-100,-100,-100,0,0,100,0.00,40.00,0,-999,0,0.00
2012-11-14,40,23,12,-100,-100,-100,0,0,100,0.00,40.00,0,-999,0,0.00
2012-11-15,38,24,14,-100,-100,-100,0,0,100,0.00,40.00,0,-999,0,0.00
2012-11-16,44,26,14,-100,-100,-100,0,0,100,0.00,40.00,0,-999,0,0.00
2012-11-17,43,30,23,-100,-100,-100,0,0,100,0.00,40.00,0,-999,0,0.00
2012-11-18,38,27,21,-100,-100,-100,0,0,100,0.00,40.00,0,-999,0,0.00
2012-11-19,41,27,20,-100,-100,-100,0,0,100,0.00,40.00,0,-999,0,0.00
2012-11-20,46,27,17,-100,-100,-100,0,0,100,0.00,40.00,0,-999,0,0.00
2012-11-21,48,32,23,-100,-100,-100,0,0,100,0.00,40.00,0,-999,0,0.00
2012-11-22,41,31,22,-100,-100,-100,0,0,100,0.00,40.00,0,-999,0,0.00
2012-11-23,41,26,17,-100,-100,-100,0,0,100,0.00,40.00,0,-999,0,0.00
2012-11-24,44,28,18,-100,-100,-100,0,0,100,0.00,40.00,0,-999,0,0.00
2012-11-25,42,27,16,-100,-100,-100,0,0,100,0.00,40.00,0,-999,0,0.00
2012-11-26,26,19,15,-100,-100,-100,0,0,100,0.00,40.00,0,-999,0,0.00
2012-11-27,40,23,12,-100,-100,-100,0,0,100,0.00,40.00,0,-999,0,0.00
2012-11-28,41,24,15,-100,-100,-100,0,0,100,0.00,40.00,0,-999,0,0.00
2012-11-29,40,28,19,-100,-100,-100,0,0,100,0.00,40.00,0,-999,0,0.00
2012-11-30,45,30,19,-100,-100,-100,0,0,100,0.00,40.00,0,-999,0,0.00
2012-12-1,43,33,23,-100,-100,-100,0,0,100,0.00,40.00,0,-999,0,0.00
2012-12-2,49,32,20,-100,-100,-100,0,0,100,0.00,40.00,0,-999,0,0.00
2012-12-3,34,27,15,-100,-100,-100,0,0,100,0.00,40.00,0,-999,0,0.00
2012-12-4,37,23,10,-100,-100,-100,0,0,100,0.00,40.00,0,-999,0,0.00
2012-12-5,46,30,22,-100,-100,-100,0,0,100,0.00,40.00,0,-999,0,0.00
2012-12-6,35,28,17,-100,-100,-100,0,0,100,0.00,40.00,0,-999,0,0.00
2012-12-7,30,24,20,-100,-100,-100,0,0,100,0.00,40.00,0,-999,0,0.00
2012-12-8,26,22,11,-100,-100,-100,0,0,100,0.00,40.00,0,-999,0,0.01
2012-12-9,9,2,-8,-100,-100,-100,0,0,100,0.00,40.00,0,-999,0,0.02
2012-12-10,12,7,-11,-100,-100,-100,0,0,100,0.00,40.00,0,-999,0,0.02
2012-12-11,18,10,7,-100,-100,-100,0,0,100,0.00,40.00,0,-999,0,0.01
2012-12-12,33,19,5,-100,-100,-100,0,0,100,0.00,40.00,0,-999,0,0.00
2012-12-13,34,22,14,-100,-100,-100,0,0,100,0.00,40.00,0,-999,0,0.00
2012-12-14,34,25,14,-100,-100,-100,0,0,100,0.00,40.00,0,-999,0,0.00
2012-12-15,26,18,9,-100,-100,-100,0,0,100,0.00,40.00,0,-999,0,0.01
2012-12-16,19,14,11,-100,-100,-100,0,0,100,0.00,40.00,0,-999,0,0.01
2012-12-17,24,18,13,-100,-100,-100,0,0,100,0.00,40.00,0,-999,0,0.01
2012-12-18,28,22,19,-100,-100,-100,0,0,100,0.00,40.00,0,-999,0,0.01
2012-12-19,22,6,-14,-100,-100,-100,0,0,100,0.00,40.00,0,-999,0,0.01
2012-12-20,27,2,-16,-100,-100,-100,0,0,100,0.00,40.00,0,-999,0,0.01
2012-12-21,37,15,5,-100,-100,-100,0,0,100,0.00,40.00,0,-999,0,0.01
2012-12-22,38,21,8,-100,-100,-100,0,0,100,0.00,40.00,0,-999,0,0.00
2012-12-23,27,20,11,-100,-100,-100,0,0,100,0.00,40.00,0,-999,0,0.00
2012-12-24,30,20,10,-100,-100,-100,0,0,100,0.00,40.00,0,-999,0,0.01
2012-12-25,19,12,1,-100,-100,-100,0,0,100,0.00,40.00,0,-999,0,0.01
2012-12-26,27,14,1,-100,-100,-100,0,0,100,0.00,40.00,0,-999,0,0.01
2012-12-27,16,11,4,-100,-100,-100,0,0,100,0.00,40.00,0,-999,0,0.01
2012-12-28,11,3,-6,-100,-100,-100,0,0,100,0.00,40.00,0,-999,0,0.01
2012-12-29,33,9,-10,-100,-100,-100,0,0,100,0.00,40.00,0,-999,0,0.00
2012-12-30,29,17,4,-100,-100,-100,0,0,100,0.00,40.00,0,-999,0,0.00
2012-12-31,20,11,-2,-100,-100,-100,0,0,100,0.00,40.00,0,-999,0,0.00
2013-1-1,11,2,-4,-100,-100,-100,0,0,100,0.00,40.00,0,-999,0,0.00